Waarnemingen

Advertentie
Mijn weer
Baltasound, Groot Brittannië (3002): temperatuur & dauwpunt: 06.12.2017 11:00:00 - 12.12.2017 11:00:00 (GMT)Baltasound, Groot Brittannië (3002): temperatuur -20cm: 06.12.2017 11:00:00 - 12.12.2017 11:00:00 (GMT)Baltasound, Groot Brittannië (3002): windsnelheid & windstoten: 06.12.2017 11:00:00 - 12.12.2017 11:00:00 (GMT)Baltasound, Groot Brittannië (3002): windrichting: 06.12.2017 11:00:00 - 12.12.2017 11:00:00 (GMT)Baltasound, Groot Brittannië (3002): luchtdruk: 06.12.2017 11:00:00 - 12.12.2017 11:00:00 (GMT)Baltasound, Groot Brittannië (3002): zicht: 06.12.2017 11:00:00 - 12.12.2017 11:00:00 (GMT)Baltasound, Groot Brittannië (3002): neerslag: 06.12.2017 11:00:00 - 12.12.2017 11:00:00 (GMT)
Datum & Tijd tt [°C] td [°C] tt -20cm [°C] ff [km/u] ff [kn] fx [km/u] fx [kn] dd ppp [hPa] vv [km] rr [mm]
12.12.2017 11:00:00 1,5 0,1 - 11 6 - - ZZW 997,0 45 0,0
12.12.2017 10:00:00 0,9 -0,1 - 15 8 - - ZW 997,0 45 0,0
12.12.2017 09:00:00 0,0 -1,0 3,4 11 6 - - ZW 997,0 50 0,0
12.12.2017 08:00:00 -1,1 -2,7 - 2 1 - - WZW 997,1 45 0,0
12.12.2017 07:00:00 -0,4 -2,0 - 4 2 - - WZW 997,0 50 0,0
12.12.2017 06:00:00 -0,1 -1,3 - 9 5 - - W 997,1 50 0,0
12.12.2017 05:00:00 -0,7 -2,2 - 4 2 - - WZW 997,3 50 0,0
12.12.2017 04:00:00 0,3 -1,5 - 8 4 - - WZW 997,4 45 0,0
12.12.2017 03:00:00 0,5 -1,4 - 5 3 - - W 997,4 50 0,0
12.12.2017 02:00:00 0,0 -1,7 - 9 5 - - W 997,3 45 0,0
12.12.2017 01:00:00 0,2 -1,5 - 5 3 - - W 996,8 40 0,0
12.12.2017 00:00:00 0,2 -1,6 - 8 4 - - W 996,4 45 0,0
11.12.2017 23:00:00 -0,1 -1,9 - 4 2 - - WNW 996,1 50 0,0
11.12.2017 22:00:00 0,4 -1,2 - 2 1 - - NW 996,0 35 0,0
11.12.2017 21:00:00 0,6 -0,9 - 4 2 - - W 995,8 40 0,0
11.12.2017 20:00:00 2,6 1,0 - 13 7 - - ONO 995,0 50 0,0
11.12.2017 19:00:00 2,4 1,5 - 13 7 - - O 994,2 45 0,0
11.12.2017 18:00:00 1,5 0,9 - 13 7 - - O 993,0 50 0,0
11.12.2017 17:00:00 0,7 0,1 - 5 3 - - O 992,0 40 0,0
11.12.2017 16:00:00 0,7 0,0 - 11 6 - - ZZW 991,2 50 0,2
11.12.2017 15:00:00 1,5 0,6 - 13 7 - - W 990,6 11 0,4
11.12.2017 14:00:00 1,9 0,6 - 4 2 - - W 990,3 17 0,6
11.12.2017 13:00:00 2,1 0,1 - 9 5 - - W 990,2 35 0,0
11.12.2017 12:00:00 2,4 0,1 - 11 6 - - WNW 990,1 35 0,0
11.12.2017 11:00:00 1,9 -0,7 - 9 5 - - NW 989,7 30 0,0
11.12.2017 10:00:00 2,5 -0,2 - 18 10 - - NW 989,0 50 0,0
11.12.2017 09:00:00 1,0 -2,3 3,9 9 5 - - NNW 988,3 35 0,0
11.12.2017 08:00:00 2,8 0,1 - 15 8 - - N 987,6 40 0,0
11.12.2017 07:00:00 2,7 -0,2 - 15 8 - - NNW 986,7 40 0,0
11.12.2017 06:00:00 3,0 -0,1 - 15 8 - - N 985,8 45 0,0
11.12.2017 05:00:00 2,9 0,4 - 16 9 - - N 984,8 40 0,0
11.12.2017 04:00:00 2,8 1,0 - 13 7 - - NNO 984,0 30 0,0
11.12.2017 03:00:00 2,2 1,5 - 5 3 - - NW 983,1 50 0,4
11.12.2017 02:00:00 1,8 1,0 - 9 5 - - WNW 982,1 9 0,0
11.12.2017 01:00:00 -0,7 -1,5 - 8 4 - - WZW 981,4 40 0,0
11.12.2017 00:00:00 -0,5 -1,4 - 15 8 - - ZW 980,7 40 0,0
10.12.2017 23:00:00 -1,0 -1,9 - 13 7 - - ZW 980,3 45 0,0
10.12.2017 22:00:00 -2,2 -3,0 - 2 1 - - W 979,6 45 0,0
10.12.2017 21:00:00 -2,1 -2,8 - 2 1 - - ZW 979,2 45 0,0
10.12.2017 20:00:00 -1,4 -2,0 - 4 2 - - WZW 978,8 50 0,0
10.12.2017 19:00:00 -2,7 -3,4 - 2 1 - - WZW 978,3 50 0,0
10.12.2017 18:00:00 -2,1 -2,8 - 4 2 - - ZZW 977,7 50 0,0
10.12.2017 17:00:00 -1,8 -2,5 - 4 2 - - WZW 977,4 45 0,0
10.12.2017 16:00:00 -2,1 -2,9 - 2 1 - - W 977,3 50 0,0
10.12.2017 15:00:00 -1,2 -1,9 - 4 2 - - W 976,9 50 0,0
10.12.2017 14:00:00 -0,1 -1,1 - 0 0 - - N 976,8 50 0,0
10.12.2017 13:00:00 2,3 1,6 - 2 1 - - W 976,9 20 0,0
10.12.2017 12:00:00 2,0 1,0 - 4 2 - - ZO 977,2 26 0,0
10.12.2017 11:00:00 2,1 1,1 - 4 2 - - WZW 977,5 45 0,0
10.12.2017 10:00:00 2,0 1,1 - 15 8 - - W 978,0 21 0,2
10.12.2017 09:00:00 1,5 0,3 4,5 15 8 - - WZW 978,6 9 1,0
10.12.2017 08:00:00 1,8 0,3 - 16 9 - - ZW 979,0 25 0,2
10.12.2017 07:00:00 1,7 -0,3 - 9 5 - - W 979,5 28 0,0
10.12.2017 06:00:00 2,4 -0,2 - 13 7 - - WNW 980,4 30 0,0
10.12.2017 05:00:00 3,0 0,3 - 22 12 - - WNW 981,4 21 0,0
10.12.2017 04:00:00 2,9 0,7 - 24 13 - - NW 982,4 22 0,2
10.12.2017 03:00:00 3,3 1,0 - 26 14 - - NW 983,4 17 0,0
10.12.2017 02:00:00 2,7 1,0 - 24 13 46 25 NNW 984,6 16 0,0
10.12.2017 01:00:00 3,1 0,9 - 29 16 46 25 NW 985,3 18 0,0
10.12.2017 00:00:00 2,9 0,3 - 28 15 46 25 NW 986,6 19 0,0
09.12.2017 23:00:00 2,5 1,2 - 28 15 59 32 WNW 987,9 24 0,6
09.12.2017 22:00:00 2,0 0,9 - 39 21 61 33 W 989,5 20 0,8
09.12.2017 21:00:00 1,7 -0,4 - 31 17 63 34 WNW 991,0 3,1 0,0
09.12.2017 20:00:00 2,4 -1,3 - 37 20 57 31 NW 992,2 22 0,2
09.12.2017 19:00:00 2,1 -2,8 - 37 20 55 30 NW 993,4 35 0,0
09.12.2017 18:00:00 1,7 -3,4 - 39 21 54 29 NW 994,5 35 0,0
09.12.2017 17:00:00 1,3 -3,9 - 41 22 55 30 NW 995,6 23 0,0
09.12.2017 16:00:00 1,2 -3,5 - 41 22 55 30 NW 996,5 26 0,0
09.12.2017 15:00:00 1,5 -4,5 - 37 20 52 28 NW 997,3 40 0,0
09.12.2017 14:00:00 0,1 -2,8 - 41 22 63 34 NNW 998,5 5 0,0
09.12.2017 13:00:00 1,4 -3,1 - 42 23 59 32 NW 999,0 24 0,0
09.12.2017 12:00:00 0,3 -3,2 - 46 25 63 34 NW 1000,0 7 0,0
09.12.2017 11:00:00 1,7 -4,6 - 42 23 59 32 NW 1000,6 27 0,0
09.12.2017 10:00:00 1,3 -2,6 - 35 19 65 35 NNW 1001,4 18 0,0
09.12.2017 09:00:00 1,8 -3,1 5,2 42 23 65 35 NW 1001,5 19 0,0
09.12.2017 08:00:00 1,1 -3,2 - 50 27 74 40 NW 1002,2 22 0,0
09.12.2017 07:00:00 1,2 -3,6 - 48 26 74 40 NW 1002,4 21 0,0
09.12.2017 06:00:00 -0,7 -1,6 - 31 17 72 39 NW 1002,5 17 0,2
09.12.2017 05:00:00 1,3 -3,7 - 46 25 67 36 NW 1002,7 27 0,0
09.12.2017 04:00:00 -0,6 -1,7 - 52 28 74 40 NNW 1003,8 1,1 0,0
09.12.2017 03:00:00 1,5 -3,2 - 48 26 78 42 NNW 1003,7 17 0,0
09.12.2017 02:00:00 1,4 -1,4 - 50 27 78 42 NW 1004,2 6 0,0
09.12.2017 01:00:00 1,6 -2,0 - 57 31 76 41 NW 1004,0 19 0,2
09.12.2017 00:00:00 1,9 -0,4 - 50 27 80 43 NW 1004,1 15 0,2
08.12.2017 23:00:00 2,1 -2,0 - 50 27 74 40 NNW 1004,0 20 0,2
08.12.2017 22:00:00 1,1 -0,8 - 54 29 78 42 NNW 1003,9 3,1 0,4
08.12.2017 21:00:00 3,4 -3,0 - 54 29 85 46 NNW 1003,4 21 0,0
08.12.2017 20:00:00 3,5 -1,8 - 65 35 93 50 NNW 1003,0 15 0,0
08.12.2017 19:00:00 3,8 -2,3 - 59 32 91 49 NNW 1002,3 14 0,0
08.12.2017 18:00:00 4,1 -0,6 - 59 32 83 45 NNW 1001,2 11 0,2
08.12.2017 17:00:00 3,2 -1,0 - 65 35 100 54 NNW 1000,5 8 0,0
08.12.2017 16:00:00 4,2 -1,1 - 65 35 87 47 NNW 998,8 11 0,0
08.12.2017 15:00:00 4,1 0,2 - 54 29 83 45 NNW 997,6 4,9 0,2
08.12.2017 14:00:00 3,1 0,9 - 46 25 83 45 NNW 996,5 1,5 1,0
08.12.2017 13:00:00 3,9 1,6 - 55 30 78 42 NNW 995,4 24 0,0
08.12.2017 12:00:00 4,4 0,9 - 61 33 85 46 NNW 994,4 12 0,4
08.12.2017 11:00:00 2,7 0,5 - 65 35 91 49 NNW 994,0 2,0 0,6
08.12.2017 10:00:00 3,9 1,2 - 59 32 89 48 NW 993,1 11 0,2
08.12.2017 09:00:00 2,2 0,1 6,0 65 35 93 50 NW 993,4 8 0,0
08.12.2017 08:00:00 2,9 -0,2 - 61 33 94 51 NW 992,7 8 0,0
08.12.2017 07:00:00 2,9 -1,7 - 67 36 94 51 NW 992,6 13 0,0
08.12.2017 06:00:00 2,8 -2,2 - 72 39 104 56 NW 992,0 11 0,0
08.12.2017 05:00:00 2,7 -1,3 - 74 40 111 60 NW 990,9 8 0,0
08.12.2017 04:00:00 - - - - - - - - - - -
08.12.2017 03:00:00 2,7 0,8 - 67 36 106 57 NW 988,9 6 0,2
08.12.2017 02:00:00 3,2 0,3 - 68 37 102 55 NW 987,4 9 0,2
08.12.2017 01:00:00 3,7 -0,4 - 63 34 83 45 NW 986,1 13 0,2
08.12.2017 00:00:00 3,4 -0,1 - 65 35 98 53 NW 985,2 11 0,2
07.12.2017 23:00:00 3,4 -1,0 - 74 40 102 55 NW 984,5 13 0,0
07.12.2017 22:00:00 3,5 0,0 - 70 38 102 55 NW 983,2 8 0,0
07.12.2017 21:00:00 3,6 0,8 - 78 42 113 61 NW 982,3 8 0,0
07.12.2017 20:00:00 4,2 0,0 - 81 44 117 63 NW 980,4 7 0,0
07.12.2017 19:00:00 4,4 0,6 - 85 46 126 68 NW 978,0 6 0,2
07.12.2017 18:00:00 4,2 2,4 - 94 51 137 74 NW - - 0,6
07.12.2017 17:00:00 3,9 2,6 - 91 49 128 69 NW - - 0,6
07.12.2017 16:00:00 3,9 2,7 - 83 45 113 61 NNW 968,8 2,1 1,0
07.12.2017 15:00:00 4,7 3,1 - 34 18 55 30 NW 964,3 11 0,4
07.12.2017 14:00:00 5,3 2,9 - 37 20 54 29 WNW 963,9 30 0,0
07.12.2017 13:00:00 4,6 2,8 - 29 16 - - NW 963,2 35 0,2
07.12.2017 12:00:00 4,0 3,0 - 24 13 - - NNW 962,9 7 0,4
07.12.2017 11:00:00 5,1 3,6 - 16 9 - - ZZW 963,4 30 1,2
07.12.2017 10:00:00 5,1 3,2 - 26 14 48 26 Z 965,3 10 0,4
07.12.2017 09:00:00 3,4 1,6 6,5 31 17 55 30 Z 967,7 22 1,0
07.12.2017 08:00:00 2,4 0,7 - 54 29 72 39 ZW 971,0 5 0,2
07.12.2017 07:00:00 4,9 2,7 - 28 15 55 30 ZZW 972,1 15 0,0
07.12.2017 06:00:00 5,7 1,7 - 39 21 68 37 WZW 974,1 14 0,0
07.12.2017 05:00:00 7,7 6,9 - 42 23 65 35 WZW 974,6 4,6 0,4
07.12.2017 04:00:00 8,8 8,0 - 42 23 61 33 WZW 975,1 23 0,0
07.12.2017 03:00:00 9,9 9,4 - 44 24 67 36 ZZW 976,6 3,5 0,4
07.12.2017 02:00:00 10,1 9,5 - 46 25 63 34 ZZW 978,3 3,9 0,2
07.12.2017 01:00:00 10,1 9,2 - 46 25 59 32 ZZW 980,5 3,1 0,0
07.12.2017 00:00:00 10,1 8,9 - 39 21 63 34 Z 982,3 14 0,0
06.12.2017 23:00:00 10,0 9,3 - 39 21 57 31 Z 984,5 13 0,0
06.12.2017 22:00:00 10,2 9,7 - 34 18 52 28 ZZW 986,5 8 0,0
06.12.2017 21:00:00 9,7 9,1 - 42 23 52 28 ZZW 988,3 7 0,6
06.12.2017 20:00:00 9,7 9,0 - 34 18 52 28 ZZW 990,1 15 0,0
06.12.2017 19:00:00 9,9 9,5 - 37 20 57 31 ZZW 991,7 3,6 0,0
06.12.2017 18:00:00 9,8 9,4 - 37 20 55 30 ZZW 992,8 5 1,0
06.12.2017 17:00:00 9,8 9,3 - 41 22 55 30 ZW 994,2 11 0,2
06.12.2017 16:00:00 9,5 9,2 - 41 22 59 32 ZW 995,5 5 0,2
06.12.2017 15:00:00 9,3 8,9 - 37 20 59 32 ZZW 996,9 3,0 0,2
06.12.2017 14:00:00 9,6 9,1 - 42 23 59 32 ZW 998,4 5 1,6
06.12.2017 13:00:00 9,7 9,3 - 35 19 52 28 ZW 999,9 6 1,8
06.12.2017 12:00:00 9,8 9,4 - 41 22 63 34 WZW 1001,2 7 1,0
06.12.2017 11:00:00 10,0 9,8 - 39 21 52 28 WZW 1002,0 8 1,0

tt = temperatuur
td = dauwpunt
tt -20cm = temperatuur -20cm
ff = windsnelheid
fx = windstoten
dd = windrichting
ppp = luchtdruk
vv = zicht
rr = neerslag

Weerstations in de omgeving